Tracking 19212 objects as of 18-Jul-2018
HD Live streaming from Space Station
objects crossing your sky now

COSMOS 371

Track COSMOS 371 now!
10-day predictions
COSMOS 371 is classified as:


NORAD ID: 4578
Int'l Code: 1970-083A
Perigee: 717.7 km
Apogee: 722.7 km
Inclination: 74.0 °
Period: 99.0 minutes
Semi major axis: 7091 km
RCS: 2.5963 m2 (large)
Launch date: October 12, 1970
Source: Commonwealth of Independent States (former USSR) (CIS)
Launch site: PLESETSK MISSILE AND SPACE COMPLEX (PKMTR)
aabbcc
Your satellite tracking list
Your tracking list is empty




NASA's NSSDC Master Catalog

Two Line Element Set (TLE):
1  4578U 70083A   18198.55956921 +.00000006 +00000-0 +81385-5 0  9997
2  4578 073.9984 254.8472 0003539 234.7296 125.3535 14.53870522525206
Source of the keplerian elements: AFSPC